Location: Csohesd
(46.2500°N, 22.6167°E)
Time: 04:24:12
(UTC+00:00)

Cosmos 1153 Rocket - Pass Details

Date: 21 October 2021
Orbit: 952 x 1007 km, 82.9° (Epoch: 30 November)

Event Time Altitude Azimuth Distance (km) Brightness Sun altitude
Rises 17:40:23 0° 181° (S) 3,709 7.5 -22.8°
Reaches altitude 10° 17:42:54 10° 180° (S) 2,769 6.8 -23.2°
Maximum altitude 17:49:15 77° 96° (E) 1,037 4.4 -24.3°
Drops below altitude 10° 17:55:41 10° 11° (NNE) 2,794 6.9 -25.4°
Sets 17:58:14 0° 10° (N) 3,746 7.6 -25.8°
